Location: Cajon Junction
(34.3117°N, 117.4748°W)
Time: 04:56:41
(UTC+00:00)

Meteor 1-23 Rocket - Pass Details

Date: 18 April 2024
Orbit: 842 x 882 km, 81.3° (Epoch: 28 May)

Event Time Altitude Azimuth Distance (km) Brightness Sun altitude
Rises 12:43:53 0° 193° (SSW) 3,437 7.1 -6.8°
Reaches altitude 10° 12:46:19 10° 195° (SSW) 2,498 6.3 -6.4°
Maximum altitude 12:51:58 69° 279° (W) 915 4.3 -5.2°
Drops below altitude 10° 12:57:35 10° 3° (N) 2,485 6.9 -4.1°
Sets 13:00:02 0° 6° (N) 3,419 7.7 -3.7°
